Regional Weather Roundup
Issued by NWS Albany, NY

Home | Current Version | Previous Version | Text Only | Print | Product List | Glossary On
Versions: 1 2 3 4 5 6 7 8 9 10 11 12 13 14 15 16 17 18 19 20 21 22 23 24 25 26 27 28 29 30 31 32 33 34 35 36 37 38 39 40 41 42 43 44 45 46 47 48 49 50
000
ASUS41 KALY 151010
RWRALY

NEW YORK STATE HOURLY WEATHER ROUNDUP
NATIONAL WEATHER SERVICE ALBANY NY
500 AM EST FRI DEC 15 2017

NOTE: "FAIR" INDICATES FEW OR NO CLOUDS BELOW 12,000 FEET WITH NO
SIGNIFICANT WEATHER AND/OR NO OBSTRUCTIONS TO VISIBILITY.

NYZ032-033-038>043-046>054-057>066-NYZ062>081-082-084-151100-
EAST


CITY           SKY/WX    TMP DP  RH WIND       PRES   REMARKS
ALBANY         CLOUDY    10   4  76 CALM      30.07S
GLENS FALLS    CLEAR     -6  -9  86 CALM      30.05S
POUGHKEEPSIE   CLOUDY     9   4  80 CALM      30.08F
NEWBURGH       CLEAR     12   7  79 W5        30.06F WCI   4
MONTGOMERY     PTCLDY    11   4  73 S6        30.05F WCI   1
WHITE PLAINS   CLEAR     16   6  65 NW6       30.05S WCI   7
ISLIP          CLEAR     13   6  74 CALM      30.09S
NEW YORK CITY  MOCLDY    23   8  52 NW8       30.09F WCI  14
CENTRAL PARK   CLEAR     20   8  60 VRB3      30.11S
$$

NYZ005>009-017-018-044>046-055-056-151100-
CENTRAL


CITY           SKY/WX    TMP DP  RH WIND       PRES   REMARKS
FULTON         CLOUDY    16  10  77 S7        29.99F WCI   6
SYRACUSE       MOCLDY    10   9  95 NE5       29.99F WCI   2
ROME           LGT SNOW  13  10  88 E6        30.03S FOG     WCI   4
ELMIRA         CLOUDY     5   0  79 CALM      30.00F
BINGHAMTON     CLOUDY     7   4  87 SW5       29.93F WCI  -2
MONTICELLO     CLOUDY     4  -1  80 VRB7      29.99F WCI  -8
$$

NYZ026>034-041>043-087-151100-
NORTH


CITY           SKY/WX    TMP DP  RH WIND       PRES   REMARKS
WATERTOWN      CLOUDY     3   3 100 E3        29.98F
FORT DRUM      NOT AVBL
OGDENSBURG     CLOUDY    -7 -11  85 CALM      29.99S
MASSENA        CLOUDY    -9 -12  87 CALM      30.03S
SARANAC LAKE   CLEAR    -11 -14  86 CALM      29.86F
PLATTSBURGH    CLEAR      9  -2  61 CALM      30.00F
$$

NYZ001>004-010>016-019>021-085-151100-
WEST


CITY           SKY/WX    TMP DP  RH WIND       PRES   REMARKS
NIAGARA FALLS  CLEAR      5   0  79 S3        29.97S
BUFFALO        CLOUDY    17   8  67 S5        29.97F WCI  10
DUNKIRK        LGT SNOW  20  17  88 S7        29.98F FOG     WCI  11
WELLSVILLE     CLOUDY    13   7  77 SW3       29.89F
ROCHESTER      FLURRIES  10   8  92 SW6       29.99F WCI   0
PENN YAN       CLOUDY    11   7  84 SW5       29.97F WCI   3
$$

             KEY
       WCI = WIND CHILL INDEX
       VSB = VISIBILITY
       HX  = HEAT INDEX
$$



USA.gov is the U.S. government's official web portal to all federal, state and local government web resources and services.